Regional Weather Roundup
Issued by NWS

Home | Current Version | Previous Version | Text Only | Print | Product List | Glossary Off
Versions: 1 2 3 4 5 6 7 8 9 10 11 12 13 14 15 16 17 18 19 20 21 22 23 24 25 26 27 28 29 30 31 32 33 34 35 36 37 38 39 40 41 42 43 44 45 46 47 48 49 50

000
ASUS43 KLOT 290308
RWRIL

ILLINOIS REGIONAL WEATHER ROUNDUP
NATIONAL WEATHER SERVICE CHICAGO/ROMEOVILLE IL
1000 PM CDT THU MAY 28 2015

NOTE: "FAIR" INDICATES FEW OR NO CLOUDS BELOW 12,000 FEET WITH NO
SIGNIFICANT WEATHER AND/OR OBSTRUCTIONS TO VISIBILITY.

* THESE STATIONS ARE NOT UNDER NWS QUALITY CONTROL. THEY ALSO MAY NOT
  REPORT WEATHER SUCH AS PRECIPITATION OR FOG.

ILZ001-002-007-009-015-016-024-290400-
NORTHWEST ILLINOIS

CITY           SKY/WX    TMP DP  RH WIND       PRES   REMARKS
MOLINE         PTCLDY    67  58  72 W9        30.01F
STERLING*      MOCLDY    72  52  49 SE3       30.03F
SAVANNA*       MOCLDY    69  54  57 CALM      30.01F
$$

ILZ003-004-008-010-011-017-018-290400-
NORTH CENTRAL ILLINOIS

CITY           SKY/WX    TMP DP  RH WIND       PRES   REMARKS
ROCKFORD       MOCLDY    71  52  50 SE8       30.05F
FREEPORT*      MOCLDY    64  53  68 SW7       30.06S
ROCHELLE*      CLOUDY    70  55  59 SE10      30.05F
DE KALB*       MOCLDY    67  55  64 E8        30.07F
PERU*          PTCLDY    73  49  42 SE8       30.05S
$$

ILZ005-006-012>014-019>023-290400-
NORTHEAST ILLINOIS

CITY           SKY/WX    TMP DP  RH WIND       PRES   REMARKS
CHICAGO-OHARE  MOCLDY    69  54  58 E7        30.08S
CHICAGO-MIDWAY MOCLDY    70  55  59 E7        30.08S
AURORA         MOCLDY    70  55  59 E9        30.06F
LANSING*       PTCLDY    67  55  65 E5        30.09S
JOLIET*        PTCLDY    70  59  67 E7        30.07S
WAUKEGAN       PTCLDY    60  54  80 E5        30.09S
DUPAGE AIRPORT MOCLDY    70  54  56 E9        30.07S
KANKAKEE*      MOCLDY    70  53  53 SE6       30.08F
WHEELING       MOCLDY    66  54  65 E3        30.10S
MORRIS*        PTCLDY    70  55  58 E7        30.04F
ROMEOVILLE*    PTCLDY    67  56  65 E8        30.07F
NORTHERLY ISL    N/A     62  53  72 CALM        N/A
$$

LMZ740>746-290400-
SOUTHERN LAKE MICHIGAN

STATION/POSITION SKY/WX   TEMP    WIND        PRES    VSBY  WAVE
                          AIR SEA DIR/SP/G                  HT/PER
                          (F)     (DEG/KT/KT) (MB)    (MI)  (FT/S)
SOUTHERN BUOY              47 38  100/  8/ 10 1019.9F         0
HARRISON CRIB              60      80/ 17/ 19   N/A
BURNHAM HARBOR             62      CALM  /  7   N/A
CALUMET HARBOR             61      90/  4/  8   N/A
BURNS HARBOR               61      80/  7/  8 1019.3F
MICHIGAN CITY              74      70/  7/  7   N/A
MICHIGAN CITY 6N           62 56  100/  4/  6   N/A           1
ST. JOSEPH                 69 60  150/  8/ 10   N/A           0
$$

ILZ025>027-034>036-040-047-049-050-058-095>099-290400-
WEST-CENTRAL ILLINOIS

CITY           SKY/WX    TMP DP  RH WIND       PRES   REMARKS
QUINCY         MOCLDY    68  65  90 E9        30.03F
GALESBURG*     MOCLDY    69  60  72 SW5       30.04S
MACOMB*        CLOUDY    69  65  88 W3        30.06S
JACKSONVILLE*  CLOUDY    70  68  92 E7        30.04S
PITTSFIELD*    MOCLDY    69  65  86 CALM      30.06R
$$

ILZ028>032-037-038-041>044-048-051>054-059>061-290400-
CENTRAL ILLINOIS

CITY           SKY/WX    TMP DP  RH WIND       PRES   REMARKS
PONTIAC        MOCLDY    72  55  55 SE6       30.06F
BLOOMINGTON    MOCLDY    70  64  81 S5        30.08S
DECATUR        MOCLDY    74  63  68 S6        30.07S
PEORIA         MOCLDY    73  62  68 S5        30.05S
LACON*         PTCLDY    69  57  64 S3        30.04R
LINCOLN*       MOCLDY    69  65  86 CALM      30.03F
SPRINGFIELD    MOCLDY    70  67  90 SE7       30.05F
TAYLORVILLE    PTCLDY    72  64  78 SE6       30.06F
$$

ILZ033-039-045-046-055>057-062-063-290400-
EAST-CENTRAL ILLINOIS

CITY           SKY/WX    TMP DP  RH WIND       PRES   REMARKS
CHAMPAIGN      PTCLDY    74  62  66 S6        30.09R
DANVILLE*      MOCLDY    76  63  62 S9        30.08R
RANTOUL*       PTCLDY    75  63  65 S5        30.08S
PARIS*         PTCLDY    75  64  67 SE7       30.11R
$$

ILZ079-100>102-290400-
SOUTHWEST ILLINOIS

CITY           SKY/WX    TMP DP  RH WIND       PRES   REMARKS
ALTON          MOCLDY    73  68  83 SE6       30.05
BELLEVILLE     PTCLDY    70  67  89 S3        30.05S
CAHOKIA*       PTCLDY    74  64  71 SE7       30.04S
SPARTA*        PTCLDY    72  66  83 SE5       30.08S
$$

ILZ064>066-069>071-074>076-080>082-084>086-088>090-092>094-290400-
SOUTH-CENTRAL ILLINOIS

CITY           SKY/WX    TMP DP  RH WIND       PRES   REMARKS
CARBONDALE     CLEAR     71  66  84 S3        30.08R
CAIRO*         CLEAR     71  67  84 CALM      30.08S
EFFINGHAM*     PTCLDY    72  65  80 E3        30.09F
MARION         CLEAR     73  66  78 SE5       30.09S
MT. VERNON     CLEAR     68  61  77 CALM      30.09S
CENTRALIA*     CLEAR     69  64  85 CALM      30.08S
SALEM*         CLEAR     75  65  70 SE3       30.08S
METROPOLIS*    PTCLDY    71  71 100 CALM      30.09F FOG
$$

ILZ067-068-072-073-078-083-087-091-290400-
SOUTHEAST ILLINOIS

CITY           SKY/WX    TMP DP  RH WIND       PRES   REMARKS
LAWRENCEVILLE  PTCLDY    72  65  78 SE8       30.12R
FLORA*         PTCLDY    71  65  81 SE7       30.09S
FAIRFIELD*     CLEAR     72  66  81 CALM      30.09R
HARRISBURG*    CLEAR     73  67  82 SE6       30.11R
ROBINSON*      PTCLDY    74  64  70 SE5       30.12R
CARMI*         PTCLDY    72  63  73 SE5       30.10S
$$

ABBREVIATIONS USED IN REMARKS
   TC - TEMPERATURE IN CELSIUS
  WCI - WIND CHILL INDEX
   HX - HEAT INDEX
  VSB - VISIBILITY
$$



USA.gov is the U.S. government's official web portal to all federal, state and local government web resources and services.